Temperature
14 14 13 13 13 13 13 13 13 12 12 12 12 12 12 12 12 12 12 12 12 12 12 12 11 11 11 11 11 11 11 11 11 11 11 11 11 11
14 13 13 13 13 13 13 13 13 13 12 12 12 12 12 12 12 12 11 11 11 11 11 11 11 11 11 11 11 11 11 11 11 11 11 11 11 11
13 13 13 13 13 13 13 13 13 13 13 12 12 12 12 12 12 12 11 11 11 11 12 11 11 11 11 11 11 11 11 11 11 11 11 10 10 10
13 13 13 13 13 13 13 13 13 13 13 12 12 12 12 12 12 12 11 11 11 11 11 11 11 11 11 11 11 11 11 11 11 10 10 10 10 10
13 13 13 13 13 13 13 13 13 12 12 12 12 12 12 12 11 11 11 11 11 11 11 11 11 11 11 11 11 11 10 10 10 10 10 10 10 10
13 13 13 13 13 13 13 13 12 12 12 12 12 12 11 11 11 11 11 11 11 11 11 11 11 11 11 11 10 10 10 10 10 10 10 10 10 10
12 12 13 13 13 13 12 12 12 12 12 12 12 12 11 11 11 11 11 11 10 11 11 11 11 11 11 10 10 10 10 10 10 10 10 10 9 9
12 12 12 12 12 12 12 12 12 12 12 12 12 12 12 11 11 11 11 10 10 10 10 11 10 10 10 10 10 10 10 10 10 10 10 10 9 9
12 12 12 12 12 12 12 12 12 12 12 12 12 12 12 11 11 11 11 11 11 10 10 10 10 10 10 10 10 10 10 10 10 10 10 9 9 9
12 12 11 11 11 11 11 11 11 11 11 11 11 11 11 11 11 11 11 10 10 10 10 10 10 10 10 10 10 10 10 10 10 9 9 9 9 9
11 11 11 11 11 11 11 11 11 11 11 11 11 11 11 11 10 10 10 10 9 9 9 9 9 9 9 9 9 9 9 9 9 9 9 9 9 9
11 11 11 11 11 11 11 11 10 10 10 10 10 10 10 10 10 10 10 10 9 9 9 9 9 9 9 9 9 9 9 9 9 9 9 9 9 9
10 10 10 10 10 10 10 10 10 10 10 10 10 10 10 10 10 10 10 9 9 9 9 9 9 9 8 9 9 9 9 9 9 9 9 9 9 9
10 10 10 10 10 10 10 10 10 9 9 9 9 10 10 10 9 9 9 9 9 9 9 9 9 9 8 8 8 8 8 9 9 9 9 9 9 9
10 10 10 9 10 9 9 9 9 9 9 9 9 9 9 9 9 9 9 8 8 8 8 8 8 8 8 8 8 8 8 8 8 8 9 8 9 9
9 9 9 9 9 9 9 9 9 9 8 8 8 8 8 8 8 8 8 8 8 8 8 8 8 8 8 8 8 8 8 8 8 8 8 8 8 8
9 8 8 8 8 8 8 8 8 8 8 8 8 8 8 8 8 8 8 7 7 7 7 7 7 7 7 7 7 7 7 7 7 7 7 8 8 8
8 8 8 8 8 8 8 8 8 7 7 7 7 7 7 7 7 7 7 7 7 7 7 7 7 6 6 7 7 7 7 7 7 7 7 7 7 7
7 7 7 7 7 7 7 7 7 7 7 7 7 7 7 7 6 6 6 6 6 6 6 6 6 6 6 6 6 6 6 6 6 6 6 6 6 7
6 6 6 6 6 6 6 6 6 6 6 6 6 6 6 6 6 6 6 6 6 6 6 6 6 6 6 6 6 6 6 6 6 6 6 6 6 6
6 6 6 6 6 6 6 6 5 5 5 5 6 6 6 6 5 5 5 5 5 5 5 5 5 5 5 5 5 5 6 5 5 5 5 5 5 5
5 5 5 5 5 5 5 5 5 5 5 5 5 5 5 5 5 5 5 5 5 5 5 5 5 5 5 5 5 5 5 5 5 5 5 5 4 4
5 4 4 4 5 5 5 5 4 4 4 4 4 4 5 5 5 4 4 4 4 4 4 4 4 4 4 4 4 4 4 4 4 5 5 5 4 4
Wind_Speed
2 2 2 1 1 1 1 2 2 1 1 1 1 2 5 6 6 6 4 5 6 5 4 4 4 4 4 4 4 4 4 4 4 4 4 4 4 5
2 2 1 1 1 1 1 1 1 2 1 1 2 2 4 5 6 6 5 6 6 5 4 4 4 4 4 3 3 3 3 3 3 4 4 4 4 4
3 3 3 3 2 2 1 1 1 1 2 1 1 2 3 2 4 4 5 6 6 6 6 5 5 5 4 4 3 3 2 3 3 3 4 4 4 4
3 2 3 2 3 2 2 2 2 2 3 2 1 1 3 3 4 3 4 5 5 6 6 7 6 6 5 5 5 4 3 3 3 3 3 3 2 2
2 2 2 2 2 2 3 2 2 2 2 2 2 1 1 2 2 2 3 3 4 5 7 7 7 7 6 6 6 6 5 4 4 4 3 3 2 2
2 2 2 2 2 2 2 2 2 2 1 1 1 1 1 2 2 2 1 1 1 3 5 5 7 7 8 8 8 7 7 6 6 5 5 4 4 3
1 2 2 2 2 2 1 1 2 2 2 2 2 1 1 1 2 2 3 2 1 2 2 3 4 4 6 8 9 9 9 9 8 7 7 6 6 5
2 2 2 2 2 3 2 3 2 2 3 3 3 3 3 3 3 3 3 2 2 2 3 2 3 3 4 7 9 10 11 10 9 9 8 7 7 6
3 2 2 2 2 2 3 4 4 5 4 4 3 4 3 3 4 3 3 3 3 3 3 2 2 3 5 7 11 11 12 11 11 10 9 8 8 8
2 2 2 1 2 2 2 2 3 4 5 4 5 5 3 3 4 5 5 3 2 2 3 3 3 3 3 6 11 13 12 12 12 11 11 10 9 9
2 2 2 2 3 3 2 3 3 3 3 4 4 4 4 4 4 2 2 2 2 3 2 3 3 2 2 3 7 13 14 14 13 12 11 11 11 10
3 3 3 2 3 3 3 4 4 3 2 1 1 2 2 3 4 4 5 4 3 2 3 3 3 2 2 2 4 7 9 11 13 13 13 12 11 9
3 3 2 2 2 4 4 4 4 3 3 3 2 2 2 2 3 3 4 4 4 3 3 3 2 2 3 2 2 3 6 6 8 10 12 13 13 10
3 2 2 2 2 3 2 2 3 2 2 2 2 2 2 2 2 3 3 4 4 4 5 4 3 3 3 2 2 2 3 5 6 6 8 10 12 13
3 4 4 4 3 3 3 3 1 1 2 2 3 3 3 3 2 1 1 2 2 3 4 5 3 3 3 3 3 2 2 3 5 4 5 6 6 6
4 4 4 3 3 3 2 2 2 2 2 3 3 2 1 1 1 1 1 1 1 2 2 4 5 4 3 3 3 4 3 3 3 4 4 4 6 8
2 2 1 1 1 1 1 2 2 2 2 2 2 2 1 1 1 1 2 1 2 2 2 2 2 3 3 3 3 4 4 3 3 3 4 4 5 6
1 2 2 1 2 2 2 2 1 2 2 2 2 2 2 2 2 1 1 2 3 3 3 2 1 0 2 3 4 4 4 4 4 3 3 4 6 5
1 2 2 2 2 2 2 2 2 3 2 2 2 2 2 2 2 2 2 2 3 3 3 2 2 3 3 5 4 5 4 4 3 3 4 4 6 5
1 2 2 2 2 2 2 2 2 2 2 2 2 2 2 2 2 2 2 3 3 3 3 2 3 4 6 5 4 4 8 6 4 5 4 3 4 6
2 2 2 2 3 2 2 2 2 2 2 2 2 2 2 2 3 3 3 4 4 3 4 5 5 5 3 1 3 4 4 8 8 5 4 3 3 3
3 3 3 3 3 2 2 2 2 2 2 2 2 3 3 3 3 3 3 3 4 4 5 4 2 2 2 4 6 6 4 4 6 9 8 7 4 4
3 3 3 3 2 2 2 2 2 2 2 2 2 3 3 3 3 3 3 3 3 4 3 3 2 2 3 4 5 5 5 4 3 3 5 9 11 11
Wind_Direction
182 175 183 189 196 207 156 152 154 184 259 201 169 152 136 126 145 151 154 160 149 136 125 120 118 120 114 106 104 99 94 96 93 89 85 93 98 94
165 168 184 192 183 173 169 192 160 170 214 211 180 167 146 144 159 161 161 153 152 155 158 157 150 144 139 133 122 116 108 103 98 95 97 97 95 93
202 185 195 184 173 192 182 183 228 164 180 242 178 159 142 143 138 162 160 156 163 175 179 179 174 172 172 170 160 148 139 127 111 103 103 96 99 101
221 202 200 183 188 198 188 200 212 207 175 197 206 161 170 169 156 164 165 173 175 185 188 190 188 187 186 184 184 178 174 168 159 153 145 135 130 127
227 229 212 182 197 202 186 201 213 214 177 182 204 196 186 174 159 177 165 163 185 188 192 196 198 199 201 202 198 197 194 192 187 187 191 193 193 196
226 214 193 181 188 199 189 204 199 187 181 180 192 196 195 201 160 176 192 198 201 195 191 194 201 208 214 213 210 207 203 203 201 202 204 208 216 221
236 214 172 150 156 166 189 220 207 190 183 187 194 197 204 183 194 191 193 201 228 191 163 180 181 194 213 220 217 212 209 208 209 210 209 210 215 222
250 239 206 179 196 206 227 231 222 207 205 194 202 207 218 206 189 186 188 192 251 222 169 208 169 201 204 207 208 208 208 209 208 208 210 211 214 220
247 247 246 202 181 199 224 240 244 244 224 206 208 220 210 201 184 192 196 198 218 213 164 219 215 215 211 219 211 208 208 208 207 208 211 214 217 221
247 235 223 221 222 193 195 223 236 237 230 232 226 224 217 196 192 194 196 196 225 223 167 211 225 227 219 210 212 206 206 207 210 213 214 216 221 224
259 233 213 218 237 219 204 231 242 261 253 230 235 224 202 190 184 168 175 175 234 245 203 189 218 226 230 214 208 207 208 209 212 216 220 221 222 225
266 258 251 247 239 210 208 220 230 238 247 285 258 239 216 210 199 180 185 192 210 237 217 184 209 189 244 240 193 196 206 214 217 221 224 226 226 219
264 264 268 262 238 223 219 217 224 221 212 222 236 226 208 202 201 198 185 192 204 224 208 180 205 202 207 239 237 199 193 204 215 224 227 228 227 219
267 270 266 261 249 233 225 246 228 207 192 204 222 229 226 221 216 194 186 192 202 204 197 183 199 201 203 225 243 226 213 207 203 211 219 227 228 228
269 283 284 263 252 237 244 247 228 185 180 198 219 231 229 222 196 171 177 170 197 234 212 199 189 204 199 218 227 220 230 233 209 211 213 211 215 217
288 297 296 270 263 252 246 227 210 197 191 211 221 234 227 209 212 199 208 199 237 286 258 226 211 200 215 229 225 238 222 223 220 216 218 220 218 217
294 273 276 272 256 244 225 221 212 206 218 227 218 216 208 212 232 208 199 193 218 243 267 283 229 198 191 211 235 243 237 237 227 216 223 237 234 223
285 257 235 215 228 239 230 231 226 229 228 218 212 207 202 205 216 217 203 210 227 237 237 230 214 328 329 299 230 238 245 243 240 224 214 231 249 242
260 268 265 243 237 235 235 229 232 229 222 217 217 214 204 207 209 218 217 229 240 242 240 221 198 196 236 263 273 229 231 244 240 234 227 229 246 249
245 253 263 269 260 246 245 247 246 239 227 225 220 219 214 213 215 218 223 231 241 249 246 236 220 215 225 241 253 261 231 228 232 242 246 245 257 265
258 258 261 260 263 260 251 247 243 236 233 234 227 225 221 224 228 228 229 241 241 243 244 243 242 233 229 230 265 268 258 236 234 229 222 236 259 264
258 258 259 263 262 258 257 255 253 249 250 242 240 238 234 231 229 227 227 235 240 244 252 256 252 230 223 237 254 261 266 268 257 251 239 226 211 228
249 251 252 258 257 256 253 250 252 251 246 246 247 246 241 248 246 235 235 236 244 255 263 265 258 245 243 246 254 263 263 265 262 256 263 255 248 252
Height
1539 1540 1541 1541 1542 1542 1543 1543 1544 1544 1544 1544 1544 1544 1544 1543 1543 1542 1541 1540 1539 1538 1538 1538 1538 1539 1540 1540 1541 1542 1542 1542 1542 1543 1543 1543 1544 1544
1538 1538 1539 1539 1540 1541 1541 1542 1542 1543 1543 1543 1543 1543 1543 1542 1542 1541 1540 1540 1539 1539 1539 1539 1539 1540 1540 1541 1541 1541 1542 1542 1542 1542 1542 1543 1543 1543
1536 1536 1537 1538 1538 1539 1539 1540 1541 1541 1541 1542 1542 1542 1541 1541 1540 1540 1540 1539 1539 1539 1539 1539 1539 1540 1540 1540 1540 1541 1541 1541 1541 1541 1542 1542 1542 1542
1534 1534 1535 1536 1536 1537 1537 1538 1539 1539 1539 1539 1540 1540 1540 1540 1539 1539 1538 1538 1538 1538 1538 1538 1539 1539 1539 1539 1540 1540 1540 1540 1540 1541 1541 1541 1541 1541
1531 1532 1533 1533 1534 1534 1535 1535 1536 1537 1537 1537 1537 1538 1538 1538 1538 1537 1537 1537 1537 1537 1537 1537 1537 1537 1538 1538 1539 1539 1539 1539 1539 1539 1540 1540 1540 1540
1528 1529 1530 1530 1531 1532 1532 1532 1533 1534 1534 1535 1535 1535 1536 1536 1536 1535 1535 1535 1536 1536 1535 1535 1536 1536 1536 1537 1537 1537 1538 1538 1538 1538 1538 1538 1538 1538
1525 1526 1527 1527 1528 1529 1529 1530 1530 1531 1531 1532 1532 1532 1533 1533 1533 1533 1533 1533 1533 1534 1534 1534 1534 1534 1534 1535 1535 1535 1535 1536 1536 1536 1536 1536 1536 1537
1522 1523 1524 1524 1525 1525 1526 1527 1528 1528 1528 1529 1529 1529 1529 1530 1530 1530 1530 1530 1530 1532 1531 1531 1532 1531 1532 1532 1533 1533 1533 1533 1533 1533 1534 1534 1534 1534
1519 1519 1520 1520 1521 1522 1522 1523 1523 1524 1525 1525 1525 1525 1526 1526 1527 1527 1527 1527 1527 1528 1529 1528 1529 1528 1529 1529 1530 1530 1530 1530 1530 1531 1531 1531 1531 1531
1515 1515 1516 1517 1517 1517 1518 1518 1518 1519 1520 1521 1521 1522 1523 1523 1524 1524 1524 1524 1524 1525 1526 1525 1525 1525 1526 1526 1526 1527 1527 1527 1528 1528 1528 1528 1528 1528
1511 1512 1512 1513 1513 1513 1513 1513 1514 1514 1516 1516 1517 1518 1518 1519 1520 1520 1520 1520 1520 1520 1522 1522 1521 1522 1522 1522 1522 1523 1523 1524 1524 1524 1524 1524 1525 1525
1507 1507 1508 1508 1508 1509 1509 1509 1509 1509 1511 1511 1512 1513 1514 1514 1515 1516 1516 1516 1516 1516 1517 1518 1518 1518 1518 1518 1519 1519 1519 1520 1520 1520 1520 1521 1521 1521
1502 1503 1503 1504 1504 1504 1504 1504 1504 1505 1506 1507 1507 1508 1509 1510 1510 1511 1512 1512 1512 1512 1513 1514 1514 1514 1514 1514 1514 1515 1515 1515 1515 1515 1515 1516 1516 1516
1498 1499 1499 1499 1499 1499 1499 1500 1500 1501 1501 1502 1502 1503 1504 1504 1505 1506 1507 1508 1508 1509 1509 1510 1510 1510 1510 1509 1509 1510 1510 1511 1511 1510 1511 1511 1511 1512
1494 1495 1495 1495 1495 1495 1495 1496 1496 1496 1496 1496 1497 1498 1499 1500 1501 1502 1502 1503 1503 1504 1504 1505 1505 1505 1505 1505 1504 1505 1505 1505 1505 1505 1505 1506 1506 1506
1489 1489 1490 1490 1490 1490 1491 1491 1492 1492 1492 1492 1492 1493 1494 1495 1496 1496 1497 1498 1498 1498 1499 1500 1500 1500 1500 1500 1500 1499 1500 1500 1500 1500 1500 1500 1500 1501
1485 1485 1485 1485 1485 1486 1486 1487 1487 1488 1488 1488 1489 1489 1490 1490 1491 1492 1493 1493 1493 1493 1494 1494 1495 1495 1495 1496 1495 1494 1494 1494 1495 1495 1495 1494 1495 1495
1481 1480 1480 1481 1481 1481 1482 1482 1483 1484 1484 1485 1485 1485 1486 1486 1487 1487 1488 1488 1488 1489 1489 1489 1490 1490 1490 1490 1491 1490 1490 1489 1490 1490 1490 1489 1489 1489
1476 1476 1476 1476 1476 1476 1477 1478 1479 1480 1481 1481 1481 1482 1482 1482 1483 1483 1484 1484 1484 1484 1485 1485 1485 1485 1484 1484 1484 1486 1485 1485 1484 1484 1484 1484 1483 1484
1471 1471 1471 1472 1472 1472 1473 1473 1474 1476 1476 1477 1477 1477 1478 1478 1478 1479 1479 1480 1480 1480 1480 1480 1480 1480 1480 1480 1479 1479 1480 1480 1479 1478 1478 1478 1478 1478
1467 1468 1468 1468 1468 1468 1469 1469 1470 1471 1472 1472 1472 1473 1473 1473 1474 1474 1475 1475 1475 1475 1475 1475 1475 1476 1475 1476 1475 1473 1474 1474 1474 1474 1473 1472 1472 1471
1463 1464 1464 1464 1464 1464 1464 1465 1466 1466 1467 1467 1467 1468 1468 1469 1469 1469 1470 1470 1470 1470 1470 1470 1470 1470 1470 1470 1469 1468 1468 1468 1468 1468 1467 1467 1466 1465
1459 1459 1459 1460 1460 1460 1460 1460 1460 1461 1462 1462 1462 1463 1463 1464 1464 1464 1465 1465 1465 1464 1464 1464 1464 1465 1465 1464 1464 1463 1462 1461 1461 1460 1461 1461 1461 1461